FW4803 Weather Reports


Display with metric or nautical units.
time (UTC)temp
F
wind
direction
speed
MPH
gust
MPH
rain 1hr
in
rain 24hr
in
rain mn
in
humidity
%
barometer
mb
20260508064514 65 240 4.0 5.0 0.00 0.00 0.00 38 1019.8
20260508064018 65 221 3.0 5.0 0.00 0.00 0.00 39 1019.9
20260508063514 65 214 3.0 5.0 0.00 0.00 0.00 39 1019.8
20260508063014 65 216 3.0 5.0 0.00 0.00 0.00 41 1019.7
20260508062513 65 219 3.0 5.0 0.00 0.00 0.00 41 1019.6
20260508062014 65 222 3.0 4.0 0.00 0.00 0.00 42 1019.5
20260508061014 65 257 4.0 5.0 0.00 0.00 0.00 43 1019.3
20260508060513 65 255 5.0 6.0 0.00 0.00 0.00 43 1019.3
20260508060014 65 268 5.0 7.0 0.00 0.00 0.00 43 1019.0
20260508055014 65 253 2.0 4.0 0.00 0.00 0.00 44 1018.6
20260508054513 65 245 2.0 3.0 0.00 0.00 0.00 45 1018.6
20260508054013 65 231 2.0 2.0 0.00 0.00 0.00 49 1018.3
20260508053514 65 221 1.0 2.0 0.00 0.00 0.00 48 1018.3
20260508053014 65 221 1.0 2.0 0.00 0.00 0.00 47 1018.2
20260508052513 65 233 1.0 2.0 0.00 0.00 0.00 47 1017.9
20260508052014 65 235 1.0 2.0 0.00 0.00 0.00 48 1018.0
20260508051513 65 0 0.0 0.0 0.00 0.00 0.00 51 1018.0
20260508050514 65 138 1.0 2.0 0.00 0.00 0.00 48 1017.9
20260508050014 65 142 2.0 2.0 0.00 0.00 0.00 47 1017.7
20260508045513 65 149 1.0 2.0 0.00 0.00 0.00 45 1017.9
20260508045014 65 260 1.0 2.0 0.00 0.00 0.00 42 1017.8
20260508044514 65 279 2.0 2.0 0.00 0.00 0.00 42 1017.9
20260508044013 65 253 2.0 2.0 0.00 0.00 0.00 42 1017.8
20260508043513 65 206 1.0 2.0 0.00 0.00 0.00 43 1017.7
20260508043013 64 265 0.0 1.0 0.00 0.00 0.00 44 1017.3
20260508042513 64 305 1.0 2.0 0.00 0.00 0.00 44 1017.2
20260508041513 65 275 1.0 3.0 0.00 0.00 0.00 42 1017.2
20260508041013 65 258 2.0 4.0 0.00 0.00 0.00 41 1017.1
20260508040513 65 249 2.0 4.0 0.00 0.00 0.00 41 1017.1
20260508040014 65 289 1.0 2.0 0.00 0.00 0.00 42 1016.8
20260508035513 65 343 2.0 3.0 0.00 0.00 0.00 42 1016.8
20260508034513 64 330 3.0 4.0 0.00 0.00 0.00 45 1016.7
20260508034014 64 323 2.0 4.0 0.00 0.00 0.00 45 1016.8
20260508033513 64 339 2.0 4.0 0.00 0.00 0.00 46 1016.8
20260508033014 64 3 2.0 3.0 0.00 0.00 0.00 47 1016.8
20260508032513 64 336 2.0 3.0 0.00 0.00 0.00 46 1016.8
20260508032013 64 334 2.0 3.0 0.00 0.00 0.00 48 1016.9
20260508031513 64 2 2.0 3.0 0.00 0.00 0.00 50 1016.9
20260508031013 63 46 1.0 2.0 0.00 0.00 0.00 54 1016.8
20260508030513 63 321 1.0 3.0 0.00 0.00 0.00 56 1016.7
20260508030013 63 334 2.0 3.0 0.00 0.00 0.00 57 1016.7
20260508025513 64 348 3.0 4.0 0.00 0.00 0.00 54 1016.9
20260508025013 63 353 2.0 4.0 0.00 0.00 0.00 58 1016.8
20260508024513 63 292 1.0 4.0 0.00 0.00 0.00 57 1016.8
20260508024013 64 278 2.0 2.0 0.00 0.00 0.00 55 1016.9
20260508023513 64 287 1.0 2.0 0.00 0.00 0.00 54 1016.9
20260508023013 64 346 1.0 3.0 0.00 0.00 0.00 55 1016.9
20260508021512 64 0 0.0 0.0 0.00 0.00 0.00 55 1016.9
20260508020513 64 0 0.0 0.0 0.00 0.00 0.00 54 1017.0
20260508020013 64 0 0.0 0.0 0.00 0.00 0.00 55 1016.9
20260508015513 64 0 0.0 0.0 0.00 0.00 0.00 57 1016.9
20260508015013 63 0 0.0 0.0 0.00 0.00 0.00 62 1016.8
20260508014513 63 0 0.0 0.0 0.00 0.00 0.00 63 1017.0
20260508014013 63 0 0.0 0.0 0.00 0.00 0.00 63 1017.2
20260508013513 63 0 0.0 0.0 0.00 0.00 0.00 63 1017.1
20260508013013 63 0 0.0 0.0 0.00 0.00 0.00 63 1017.1
20260508012513 63 0 0.0 0.0 0.00 0.00 0.00 64 1017.3
20260508012013 63 0 0.0 0.0 0.00 0.00 0.00 64 1017.3
20260508011516 63 0 0.0 0.0 0.00 0.00 0.00 64 1017.5
20260508011013 63 0 0.0 0.0 0.00 0.00 0.00 64 1017.5
20260508010513 63 0 0.0 0.0 0.00 0.00 0.00 64 1017.5
20260508010013 63 0 0.0 0.0 0.00 0.00 0.00 64 1017.6
20260508005013 63 307 1.0 2.0 0.00 0.00 0.00 64 1017.5
20260508004513 63 341 1.0 3.0 0.00 0.00 0.00 64 1017.7
20260508004013 63 1 1.0 3.0 0.00 0.00 0.00 63 1017.6
20260508003513 63 43 1.0 3.0 0.00 0.00 0.00 63 1017.6
20260508003013 63 345 2.0 4.0 0.00 0.00 0.00 63 1017.6
20260508002513 63 332 2.0 4.0 0.00 0.00 0.00 63 1017.5
20260508002013 63 343 2.0 4.0 0.00 0.00 0.00 63 1017.6
20260508001516 63 337 2.0 4.0 0.00 0.00 0.00 63 1017.6
20260508000513 63 287 2.0 3.0 0.00 0.00 0.00 62 1017.6
20260508000014 63 321 1.0 2.0 0.00 0.00 0.00 62 1017.6
20260507235516 63 320 1.0 2.0 0.00 0.00 0.00 62 1017.8
20260507235013 63 265 1.0 2.0 0.00 0.00 0.00 61 1018.0
20260507234013 64 224 1.0 2.0 0.00 0.00 0.00 56 1018.1
20260507233512 63 291 1.0 2.0 0.00 0.00 0.00 60 1018.3
20260507233013 64 276 2.0 2.0 0.00 0.00 0.00 55 1018.3
20260507232513 64 270 2.0 2.0 0.00 0.00 0.00 55 1018.2
20260507232013 64 270 1.0 2.0 0.00 0.00 0.00 54 1018.3
20260507231513 64 0 0.0 0.0 0.00 0.00 0.00 54 1018.1
20260507231013 64 0 0.0 0.0 0.00 0.00 0.00 54 1018.1
20260507225513 64 345 1.0 2.0 0.00 0.00 0.00 53 1018.3
20260507225013 64 315 1.0 2.0 0.00 0.00 0.00 53 1018.4
20260507224013 64 304 2.0 2.0 0.00 0.00 0.00 52 1018.4
20260507221513 64 264 2.0 2.0 0.00 0.00 0.00 47 1018.7
20260507221012 64 269 1.0 2.0 0.00 0.00 0.00 46 1018.6
20260507220513 64 270 0.0 2.0 0.00 0.00 0.00 46 1018.7
20260507215513 65 0 0.0 0.0 0.00 0.00 0.00 45 1018.7
20260507215013 65 0 0.0 0.0 0.00 0.00 0.00 45 1018.8
20260507214512 65 0 0.0 0.0 0.00 0.00 0.00 45 1019.0
20260507214013 65 0 0.0 0.0 0.00 0.00 0.00 44 1018.9
20260507213512 65 135 0.0 2.0 0.00 0.00 0.00 44 1018.9
20260507213013 65 135 1.0 2.0 0.00 0.00 0.00 44 1019.1
20260507212513 65 157 2.0 2.0 0.00 0.00 0.00 44 1019.1
20260507211012 65 125 2.0 2.0 0.00 0.00 0.00 44 1019.1
20260507210513 64 145 3.0 4.0 0.00 0.00 0.00 44 1019.0
20260507210016 64 156 3.0 4.0 0.00 0.00 0.00 45 1018.9
20260507205513 64 118 3.0 4.0 0.00 0.00 0.00 44 1018.9
20260507205012 64 100 3.0 4.0 0.00 0.00 0.00 45 1019.0
20260507204513 64 102 3.0 4.0 0.00 0.00 0.00 45 1018.9
20260507204013 64 110 4.0 4.0 0.00 0.00 0.00 45 1019.0
20260507203013 64 128 4.0 5.0 0.00 0.00 0.00 45 1019.0
20260507202513 64 117 4.0 5.0 0.00 0.00 0.00 46 1019.0
20260507202013 64 124 4.0 6.0 0.00 0.00 0.00 46 1019.1
20260507201513 64 125 5.0 7.0 0.00 0.00 0.00 46 1019.0
20260507201013 64 125 6.0 8.0 0.00 0.00 0.00 46 1019.1
20260507200513 64 109 5.0 8.0 0.00 0.00 0.00 46 1018.9
20260507195514 64 101 3.0 4.0 0.00 0.00 0.00 45 1018.9
20260507194513 64 63 3.0 4.0 0.00 0.00 0.00 45 1018.7
20260507194013 64 59 3.0 4.0 0.00 0.00 0.00 45 1018.8
20260507193012 64 82 4.0 5.0 0.00 0.00 0.00 44 1018.9
20260507192513 64 89 4.0 5.0 0.00 0.00 0.00 44 1019.0
20260507192012 64 80 4.0 5.0 0.00 0.00 0.00 44 1018.8
20260507191514 64 71 4.0 5.0 0.00 0.00 0.00 44 1018.8
20260507191013 64 89 4.0 4.0 0.00 0.00 0.00 44 1018.7
20260507190512 65 90 3.0 4.0 0.00 0.00 0.00 44 1018.7
20260507190014 65 96 3.0 4.0 0.00 0.00 0.00 44 1018.9
20260507185512 65 113 3.0 4.0 0.00 0.00 0.00 43 1018.9
20260507185013 65 107 3.0 4.0 0.00 0.00 0.00 44 1019.0
20260507184013 65 143 2.0 3.0 0.00 0.00 0.00 45 1019.0
20260507183513 65 155 1.0 2.0 0.00 0.00 0.00 45 1018.8
20260507183012 65 118 1.0 4.0 0.00 0.00 0.00 46 1018.8
20260507182513 65 108 3.0 6.0 0.00 0.00 0.00 45 1018.8
20260507182013 65 98 5.0 6.0 0.00 0.00 0.00 45 1018.7
20260507181513 65 98 4.0 5.0 0.00 0.00 0.00 46 1018.6
20260507181012 65 111 4.0 4.0 0.00 0.00 0.00 47 1018.5
20260507180513 65 129 4.0 4.0 0.00 0.00 0.00 47 1018.7
20260507180013 65 123 4.0 5.0 0.00 0.00 0.00 48 1018.6
20260507175513 65 92 5.0 5.0 0.00 0.00 0.00 48 1018.6
20260507174513 65 78 5.0 5.0 0.00 0.00 0.00 48 1018.7
20260507174013 66 42 5.0 5.0 0.00 0.00 0.00 48 1018.6
20260507173013 66 99 4.0 6.0 0.00 0.00 0.00 47 1018.9
20260507172512 66 107 5.0 7.0 0.00 0.00 0.00 46 1018.7
20260507172013 67 101 6.0 7.0 0.00 0.00 0.00 46 1018.7
20260507171013 67 171 5.0 7.0 0.00 0.00 0.00 44 1018.5
20260507170512 67 95 6.0 8.0 0.00 0.00 0.00 44 1018.5
20260507170016 67 98 5.0 8.0 0.00 0.00 0.00 43 1018.4
20260507165513 68 111 6.0 8.0 0.00 0.00 0.00 43 1018.4
20260507165012 68 110 7.0 8.0 0.00 0.00 0.00 43 1018.2
20260507164512 68 97 7.0 10.0 0.00 0.00 0.00 43 1018.0
20260507164013 69 68 8.0 10.0 0.00 0.00 0.00 42 1018.2
20260507163512 69 41 7.0 11.0 0.00 0.00 0.00 42 1018.2
20260507163013 70 97 6.0 11.0 0.00 0.00 0.00 39 1018.3
20260507162512 70 132 5.0 8.0 0.00 0.00 0.00 36 1018.3
20260507162012 71 178 3.0 5.0 0.00 0.00 0.00 27 1018.4
20260507161513 71 205 3.0 5.0 0.00 0.00 0.00 24 1018.3
20260507161012 71 259 3.0 3.0 0.00 0.00 0.00 25 1018.4
20260507160513 71 250 3.0 4.0 0.00 0.00 0.00 25 1018.5
20260507155512 71 182 4.0 5.0 0.00 0.00 0.00 23 1018.3
20260507155013 71 210 5.0 8.0 0.00 0.00 0.00 23 1018.4
20260507154512 72 215 5.0 8.0 0.00 0.00 0.00 23 1018.4
20260507154012 72 204 5.0 7.0 0.00 0.00 0.00 23 1018.6
20260507153512 72 257 5.0 7.0 0.00 0.00 0.00 24 1018.5
20260507152013 72 200 6.0 9.0 0.00 0.00 0.00 23 1018.7
20260507151512 72 196 8.0 11.0 0.00 0.00 0.00 24 1018.7
20260507151012 72 221 8.0 11.0 0.00 0.00 0.00 22 1018.7
20260507150512 73 254 6.0 8.0 0.00 0.00 0.00 23 1018.8
20260507150012 73 255 5.0 8.0 0.00 0.00 0.00 23 1018.7
20260507145013 73 182 6.0 9.0 0.00 0.00 0.00 23 1018.5
20260507144512 73 227 6.0 9.0 0.00 0.00 0.00 23 1018.6
20260507144016 73 268 5.0 6.0 0.00 0.00 0.00 22 1018.7
20260507143012 73 237 6.0 10.0 0.00 0.00 0.00 23 1018.6
20260507142513 74 257 7.0 10.0 0.00 0.00 0.00 22 1018.6
20260507142012 74 265 8.0 11.0 0.00 0.00 0.00 22 1018.5
20260507141012 74 217 8.0 11.0 0.00 0.00 0.00 22 1018.3
20260507140513 75 222 6.0 7.0 0.00 0.00 0.00 22 1018.2
20260507140016 75 192 6.0 8.0 0.00 0.00 0.00 22 1018.2
20260507134512 76 221 6.0 9.0 0.00 0.00 0.00 17 1017.9
20260507134012 75 235 6.0 8.0 0.00 0.00 0.00 17 1017.9
20260507133512 75 154 7.0 8.0 0.00 0.00 0.00 22 1017.8
20260507133012 74 156 7.0 11.0 0.00 0.00 0.00 22 1017.9
20260507132513 74 165 7.0 11.0 0.00 0.00 0.00 23 1017.8
20260507132012 74 173 7.0 10.0 0.00 0.00 0.00 23 1017.9
20260507131512 74 186 7.0 9.0 0.00 0.00 0.00 23 1017.9
20260507131013 74 164 7.0 9.0 0.00 0.00 0.00 23 1017.9
20260507130512 74 152 6.0 9.0 0.00 0.00 0.00 26 1018.0
20260507130013 73 241 5.0 7.0 0.00 0.00 0.00 32 1018.1
20260507125012 73 201 6.0 8.0 0.00 0.00 0.00 32 1018.3
20260507124512 74 179 6.0 8.0 0.00 0.00 0.00 31 1018.3
20260507123516 74 202 8.0 10.0 0.00 0.00 0.00 28 1018.3
20260507122512 76 202 7.0 10.0 0.00 0.00 0.00 29 1018.5
20260507121512 76 204 8.0 11.0 0.00 0.00 0.00 28 1018.5
20260507121014 76 209 8.0 11.0 0.00 0.00 0.00 22 1018.4
20260507120512 76 238 8.0 11.0 0.00 0.00 0.00 24 1018.5
20260507120012 76 233 8.0 11.0 0.00 0.00 0.00 22 1018.4
20260507115014 75 175 8.0 12.0 0.00 0.00 0.00 22 1018.5
20260507114012 75 275 8.0 11.0 0.00 0.00 0.00 32 1018.5
20260507113512 75 272 8.0 11.0 0.00 0.00 0.00 31 1018.4
20260507113012 75 230 7.0 10.0 0.00 0.00 0.00 32 1018.3
20260507112512 74 279 8.0 10.0 0.00 0.00 0.00 38 1018.5
20260507112012 75 287 7.0 8.0 0.00 0.00 0.00 37 1018.7
20260507111512 75 234 7.0 11.0 0.00 0.00 0.00 42 1018.6
20260507111012 75 248 8.0 11.0 0.00 0.00 0.00 43 1018.4
20260507110512 75 277 8.0 11.0 0.00 0.00 0.00 45 1018.4
20260507110012 75 234 7.0 9.0 0.00 0.00 0.00 46 1018.3
20260507105513 75 253 8.0 10.0 0.00 0.00 0.00 43 1018.4
20260507105012 75 259 8.0 10.0 0.00 0.00 0.00 42 1018.5
20260507104512 76 223 8.0 10.0 0.00 0.00 0.00 39 1018.4
20260507103512 75 276 7.0 9.0 0.00 0.00 0.00 38 1018.1
20260507103012 75 269 6.0 11.0 0.00 0.00 0.00 41 1018.0
20260507102521 75 225 7.0 11.0 0.00 0.00 0.00 42 1018.0
20260507101512 75 229 7.0 8.0 0.00 0.00 0.00 42 1018.1
20260507101012 75 250 6.0 8.0 0.00 0.00 0.00 41 1018.1
20260507100512 75 268 5.0 6.0 0.00 0.00 0.00 40 1018.1
20260507100012 75 254 5.0 6.0 0.00 0.00 0.00 42 1018.2
20260507095512 74 239 5.0 6.0 0.00 0.00 0.00 42 1018.2
20260507094512 74 243 5.0 8.0 0.00 0.00 0.00 42 1018.1
20260507094012 74 260 6.0 8.0 0.00 0.00 0.00 42 1018.1
20260507093013 75 250 5.0 7.0 0.00 0.00 0.00 41 1018.1
20260507091513 74 227 5.0 8.0 0.00 0.00 0.00 41 1018.1
20260507091011 74 242 5.0 7.0 0.00 0.00 0.00 41 1017.9
20260507090512 74 235 5.0 7.0 0.00 0.00 0.00 42 1018.0
20260507090012 74 209 4.0 5.0 0.00 0.00 0.00 42 1017.8
20260507085512 73 209 4.0 5.0 0.00 0.00 0.00 41 1018.0
20260507083012 72 107 3.0 4.0 0.00 0.00 0.00 40 1018.2
20260507082512 72 177 3.0 4.0 0.00 0.00 0.00 43 1018.1
20260507082011 72 198 4.0 5.0 0.00 0.00 0.00 43 1018.1
20260507081513 72 191 5.0 6.0 0.00 0.00 0.00 43 1018.1
20260507081011 72 196 4.0 6.0 0.00 0.00 0.00 43 1018.1
20260507080512 72 202 4.0 7.0 0.00 0.00 0.00 41 1018.0
20260507080012 72 212 4.0 7.0 0.00 0.00 0.00 39 1018.2
20260507075012 71 150 4.0 5.0 0.00 0.00 0.00 40 1018.0
20260507074511 71 133 5.0 6.0 0.00 0.00 0.00 41 1018.0
20260507074012 71 131 6.0 8.0 0.00 0.00 0.00 42 1017.8
20260507073012 70 161 6.0 8.0 0.00 0.00 0.00 42 1017.8
20260507072512 71 185 5.0 8.0 0.00 0.00 0.00 44 1017.7
20260507072011 70 195 4.0 6.0 0.00 0.00 0.00 48 1017.8
20260507071012 70 159 5.0 7.0 0.00 0.00 0.00 49 1017.9
20260507070511 69 159 6.0 7.0 0.00 0.00 0.00 49 1017.9
20260507070014 69 134 7.0 8.0 0.00 0.00 0.00 49 1018.1
20260507065511 68 127 8.0 8.0 0.00 0.00 0.00 49 1018.0
20260507065012 68 125 8.0 10.0 0.00 0.00 0.00 48 1018.0